{"data":{"norad_id":43572,"epoch":"2026-09-20T02:29:54.479328Z","epoch_age_seconds":49581,"freshness":"FRESH","line1":"1 43572U 18061D   26263.10410277  .00000033  00000+0  48164-5 0  9991","line2":"2 43572  86.4009  17.1109 0002082  93.4427 266.7007 14.34217729426998","mean_motion":14.34217729,"eccentricity":0.0002082,"inclination_deg":86.4009,"raan_deg":17.1109,"arg_perigee_deg":93.4427,"mean_anomaly_deg":266.7007,"bstar":4.8164e-6,"rev_number":42699,"period_min":100.40316549455,"perigee_km":776.17738576481,"apogee_km":779.15706264377,"semimajor_km":7155.8042242043,"source":"CELESTRAK","updated_at":"2026-09-20T09:00:36.332269Z"}}